www.pogodaiklimat.ru

Погода и климат >> Архив погоды >> Оман >> Эль-Бурайми


ПОГОДА в Эль-Бурайми

  • Прогноз погоды в Эль-Бурайми
  • Монитор погоды в Эль-Бурайми

АРХИВ ПОГОДЫ в Эль-Бурайми

Время (UTC), дата Ветер
(напр.,м/с)
 
Видим.   Явления Облачность Т
(С)
Тd
(С)
f
(%)
Тe
(С)
Тes
(С)
Комфортность P
(гПа)
Po
(гПа)
Тmin
(С)
Tmax
(С)
R
(мм)
R24
(мм)
S
(см)
18 16.08 СЗ 3 н/о н/о +37.8 +16.3 28 +40 +40 очень
душно
996.4 957.7 +43.9
21 16.08 В 3 н/о н/о +36.8 +6.9 16 +34 +34 очень
жарко
996.0 957.1
00 17.08 Ю 5 н/о н/о +33.2 +19.5 45 +39 +39 очень
душно
995.8 956.6
03 17.08 Ю 4 н/о н/о +32.9 +18.8 43 +38 +38 очень
душно
997.5 958.2
06 17.08 Ю 7 н/о н/о +38.3 +16.8 28 +41 +41 опасность
перегрева
997.5 958.8 +32.3
09 17.08 ЮЗ 3 н/о н/о +42.2 +14.1 19 +42 +42 опасность
перегрева
995.3 957.1
12 17.08 В 10 н/о н/о +41.2 +10.6 16 +40 +40 очень
жарко
994.3 955.9
15 17.08 В 5 н/о н/о +40.4 +11.0 17 +39 +39 очень
жарко
994.0 955.6
18 17.08 В 4 н/о н/о +37.3 +15.3 27 +39 +39 очень
душно
995.5 956.8 +43.7
21 17.08 В 3 н/о н/о +35.9 +12.8 25 +36 +36 очень
жарко
995.7 956.7
00 18.08 ЮВ 5 н/о н/о +34.2 +15.8 33 +36 +36 душно 997.1 957.9
03 18.08 Ю 5 н/о н/о +34.4 +16.2 34 +37 +37 очень
душно
998.6 959.4
06 18.08 ЮВ 7 н/о н/о +38.7 +12.8 21 +38 +38 очень
жарко
999.0 960.3 +33.1
09 18.08 Ю 6 н/о н/о +42.0 +12.0 17 +41 +41 опасность
перегрева
997.4 959.0
12 18.08 С 7 н/о н/о +40.4 +17.6 27 +43 +43 опасность
перегрева
996.2 957.8
15 18.08 ЮВ 6 н/о н/о +36.9 +22.5 44 +46 +46 опасность
перегрева
997.3 958.6
18 18.08 В 3 н/о н/о +36.0 +21.4 43 +44 +44 опасность
перегрева
999.0 960.0 +43.4
21 18.08 СВ 1 н/о н/о +34.8 +19.7 41 +40 +40 очень
душно
998.9 959.7
00 19.08 В 3 н/о н/о +32.7 +21.1 51 +40 +40 очень
душно
999.5 960.1
03 19.08 ЮВ 3 н/о н/о +31.7 +19.9 50 +38 +38 очень
душно
1001.6 962.0
06 19.08 ЮВ 4 н/о н/о +35.3 +20.6 42 +42 +42 опасность
перегрева
1002.4 963.2 +31.1
09 19.08 ЮВ 5 н/о н/о +40.2 +16.2 25 +42 +42 опасность
перегрева
1000.0 961.5
12 19.08 В 4 н/о н/о +42.8 +12.5 17 +42 +42 опасность
перегрева
997.8 959.6
15 19.08 В 4 н/о н/о +39.4 +12.1 20 +39 +39 очень
жарко
999.3 960.6
18 19.08 В 4 н/о н/о +37.4 +13.1 23 +37 +37 очень
жарко
1001.0 962.0 +43.0
21 19.08 В 3 н/о н/о +34.5 +15.8 33 +37 +37 очень
душно
1000.9 961.6
00 20.08 ЮВ 4 н/о н/о +31.4 +18.9 47 +36 +36 очень
душно
1001.5 961.8
03 20.08 ЮВ 3 н/о н/о +29.8 +22.1 63 +38 +38 очень
душно
1003.5 963.6
06 20.08 Ю 3 н/о н/о +34.0 +20.2 44 +40 +40 очень
душно
1004.5 965.0 +29.5
09 20.08 З 2 н/о н/о +38.9 +16.1 26 +41 +41 опасность
перегрева
1001.9 963.1
12 20.08 З 4 н/о н/о +41.5 +14.0 20 +42 +42 опасность
перегрева
999.1 960.7
15 20.08 В 4 н/о н/о +39.2 +16.3 26 +41 +41 опасность
перегрева
999.9 961.2
18 20.08 СВ 1 н/о н/о +36.9 +14.9 27 +38 +38 очень
душно
1001.5 962.5 +42.6
21 20.08 З 1 н/о н/о +33.8 +21.1 48 +41 +41 опасность
перегрева
1001.1 961.7
00 21.08 Ю 5 н/о н/о +30.5 +19.7 53 +37 +37 очень
душно
1002.7 962.8
03 21.08 ЮВ 4 н/о н/о +29.3 +20.1 58 +36 +36 очень
душно
1003.6 963.6
06 21.08 Ю 7 н/о н/о +33.2 +20.1 46 +39 +39 очень
душно
1003.9 964.4 +29.1
09 21.08 Ю 5 н/о н/о +37.8 +16.6 29 +40 +40 очень
душно
1001.5 962.6
12 21.08 З 4 н/о н/о +39.7 +13.3 21 +40 +40 очень
душно
999.4 960.8
15 21.08 З 4 н/о н/о +38.7 +13.5 22 +39 +39 душно 999.4 960.6
18 21.08 СЗ 4 н/о н/о +34.9 +21.2 45 +42 +42 опасность
перегрева
1000.7 961.6 +40.7
21 21.08 штиль 0 н/о н/о +32.7 +21.1 51 +40 +40 очень
душно
999.9 960.5
00 22.08 ЮЗ 1 н/о н/о +31.2 +20.8 54 +38 +38 очень
душно
1000.2 960.6
03 22.08 ЮВ 4 н/о н/о +32.3 +16.5 39 +35 +35 очень
душно
1001.5 961.9
06 22.08 Ю 7 н/о н/о +37.2 +16.2 29 +39 +39 очень
душно
1000.7 961.8 +31.0
09 22.08 Ю 5 н/о н/о +39.6 +13.7 22 +40 +40 очень
душно
999.0 960.3
12 22.08 З 4 н/о н/о +41.5 +12.2 18 +41 +41 опасность
перегрева
997.0 958.7
15 22.08 В 5 н/о н/о +37.3 +9.6 19 +36 +36 очень
жарко
998.3 959.3
18 22.08 ЮЗ 2 н/о н/о +35.5 +18.2 36 +39 +39 очень
душно
1000.1 960.9 +42.5
21 22.08 ЮВ 3 н/о н/о +33.2 +15.8 35 +36 +36 очень
душно
960.5
00 23.08 В 2 н/о н/о +32.0 +19.3 47 +38 +38 очень
душно
999.9 960.4
03 23.08 ЮВ 4 н/о н/о +31.7 +13.1 32 +33 +33 жарко 1001.7 962.0
06 23.08 Ю 6 н/о н/о +38.0 +13.1 23 +38 +38 очень
жарко
1001.3 962.3 +31.3
09 23.08 Ю 4 н/о н/о +41.6 +9.2 14 +40 +40 очень
жарко
999.1 960.7
12 23.08 СЗ 5 н/о н/о +39.1 +7.6 15 +37 +37 очень
жарко
999.5 960.7
15 23.08 В 6 н/о н/о +37.1 +19.4 36 +42 +42 опасность
перегрева
999.4 960.5

 

Местоположение метеостанции Эль-Бурайми (Оман): широта 24.23 долгота 55.78 высота над уровнем моря 299 м.

В архиве по умолчанию представлена погода в Эль-Бурайми за последнюю неделю. Архивные данные за месяц целиком и за предыдущие месяцы, начиная с января 2011 года, Вы можете получить, выбрав интересующий диапазон дат из раскрывающегося списка и нажав кнопку "Ввод!".


*Определитесь, кто Вы:
робот инопланетянин человек

Внимание! Время в таблицах - всемирное. Для получения местного времени необходимо прибавить поправку, которая равна 4 ч.

Смотрите также архив погоды в соседних городах и на ближайших метеорологических станциях:

Погода в Эль-Айне (ОАЭ) (19 км)
Погода в Кумейре (Оман) (54 км)
Погода в Сухаре (Оман) (90 км)
Погода в Аль-Мактум аэропорту (ОАЭ) (97 км)
Погода в Фуджейре (ОАЭ) (112 км)
Погода в Абу-Даби (ОАЭ) (117 км)
Погода в Ибри (Оман) (117 км)
Погода в Дубае (ОАЭ) (122 км)
Погода в Шардже (ОАЭ) (125 км)
Погода в Абу-Даби Батин аэропорту (ОАЭ) (136 км)

Пояснения к столбцам:

Ветер - указаны скорость ветра в м/с - средняя за 10 мин, порывы в срок и между сроками (в фигурных скобках) и направление, откуда дует ветер: С - северный, СВ - северо-восточный, В - восточный, ЮВ - юго-восточный, Ю - южный, ЮЗ - юго-западный, З - западный, СЗ - северо-западный.
Видимость - горизонтальная дальность видимости в метрах или километрах. При видимости от 1 до 10 км при отсутствии осадков обычно наблюдается дымка, при ухудшении видимости до 1 км и менее - туман. В сухую погоду видимость может ухудшаться дымом, пылью или мглою.
Явления - указаны атмосферные явления, наблюдавшиеся в срок или в последний час перед сроком; фигурными скобками обозначены явления, наблюдавшиеся между сроками (за 1-3 часа до срока); квадратными скобками обозначены град или гололедные отложения с указанием их диаметра в мм.
Облачность - указаны через наклонную черту общая и нижняя облачность в баллах и высота нижней границы облаков в метрах; квадратными скобками обозначены формы облаков: Ci - перистые, Cs - перисто-слоистые, Cc - перисто-кучевые, Ac - высококучевые, As - высокослоистые, Sc - слоисто-кучевые, Ns - слоисто-дождевые, Cu - кучевые, Cb - кучево-дождевые. Подробнее классификацию облаков см. в Атласе облаков (PDF).
T - Температура воздуха - температура, измеренная на высоте 2 м над землей.
Td - Температура точки росы - температура, при понижении до которой содержащийся в воздухе водяной пар достигнет насыщения.
f - Относительная влажность воздуха - влажноcть воздуха, измеренная на высоте 2 м над землей.
Te - Эффективная температура - температура, которую ощущает одетый по сезону человек в тени. Характеристика душности погоды. При расчете учитывается влияние влажности воздуха и скорости ветра на теплоощущения человека.
Tes - Эффективная температура на солнце - температура, которую ощущает человек, с поправкой на солнечный нагрев. Характеристика знойности погоды. Зависит от высоты солнца над горизонтом, облачности и скорости ветра. Ночью, в пасмурную погоду, а также при ветре 12 м/с и более поправка равна нулю.
P - Атмосферное давление - приведенное к уровню моря атмосферное давление.
Po - Атмосферное давление - измеренное на уровне метеостанции атмосферное давление.
Tmin - Минимальная температура - минимум температуры воздуха на высоте 2 м над землей.
Tmax - Максимальная температура - максимум температуры воздуха на высоте 2 м над землей.
R - Количество осадков - Количество выпавших осадков за период времени, мм. При наведении курсора мыши на число - период времени, за который выпало указанное количество осадков.
R24 - Количество осадков - Количество выпавших осадков за 24 часа, мм.
S - Снежный покров - Высота снежного покрова, см. При наведении курсора мыши на число - состояние снежного покрова и степень покрытия местности в баллах.